Temp
75 77 77 70 59 57 54 61 69 64 63 67 68 65 62 61 61 56 68 70 74 73 74 78 79 79 79 79 79 79 79 79 79 78 78 78 78 78 78 78 78 79 80 80 80 80 80 80 79
76 80 72 62 52 50 52 62 61 66 68 72 71 70 66 61 67 65 66 71 75 73 73 74 79 79 79 79 78 78 78 78 78 78 78 78 78 78 78 78 78 78 79 80 80 80 78 78 79
79 80 65 55 51 50 52 62 63 68 73 71 66 70 67 63 67 66 70 72 74 71 72 74 78 78 79 78 78 78 78 78 78 78 78 77 77 77 77 78 78 78 78 78 79 78 77 77 78
77 72 65 54 51 58 60 64 65 66 70 70 68 62 69 72 71 72 72 73 72 72 74 77 78 77 78 78 77 77 77 77 77 77 77 77 77 77 77 77 77 78 78 78 78 77 77 77 78
71 65 53 53 55 58 63 65 66 66 66 67 69 63 63 70 72 72 72 72 69 70 71 74 78 77 77 77 77 77 77 76 76 77 76 77 77 76 76 76 77 77 77 77 77 77 76 76 77
63 61 50 52 56 59 65 67 64 65 66 66 64 65 62 68 70 70 73 71 70 69 69 70 77 77 77 77 77 77 77 77 77 77 77 77 77 76 76 76 76 76 76 76 76 76 76 76 76
61 54 49 56 58 60 65 69 65 63 64 65 69 61 63 66 70 71 72 69 69 69 68 67 67 71 74 77 77 77 77 77 77 77 77 76 77 76 76 76 76 76 76 76 76 76 76 76 76
61 57 56 53 56 57 67 66 67 65 62 72 69 60 59 66 70 72 71 70 69 66 66 67 65 65 65 66 75 74 75 76 76 75 75 73 72 73 74 73 74 75 76 76 76 76 76 76 75
69 56 51 53 57 61 67 62 66 69 63 64 63 64 66 70 71 69 68 67 64 67 65 63 64 64 65 66 69 68 72 72 72 69 71 64 61 63 65 72 73 73 73 73 74 75 76 76 75
64 55 59 65 66 63 65 63 64 63 62 60 61 66 68 70 69 67 65 65 63 65 65 62 62 62 63 69 61 60 64 60 60 61 59 58 58 62 65 67 70 70 72 71 71 72 72 71 65
67 58 66 68 70 69 65 63 66 62 58 62 59 61 66 66 67 65 66 66 62 63 63 63 61 61 60 61 60 58 59 58 58 59 58 57 58 56 57 56 57 57 66 61 63 62 62 63 63
65 67 68 70 72 68 62 64 58 59 58 65 63 64 65 64 63 63 63 63 65 62 62 61 60 58 58 58 58 57 57 56 56 57 57 55 54 55 54 54 54 56 56 58 60 63 63 61 61
64 65 66 69 67 65 65 60 59 58 61 65 66 65 64 63 63 64 63 65 62 61 60 60 60 58 57 56 56 55 55 55 55 55 56 55 53 52 53 53 52 52 53 55 55 61 60 60 61
65 65 64 65 64 62 58 58 60 60 65 63 64 64 65 65 65 64 65 64 62 61 60 60 59 58 56 54 54 53 53 54 54 54 55 56 53 52 52 51 52 51 51 52 53 54 59 57 60
68 59 61 61 63 60 62 57 57 61 63 60 63 62 63 64 66 65 64 62 61 60 60 60 58 56 55 54 54 54 54 55 53 54 55 56 54 52 51 50 51 51 51 51 52 54 55 57 59
60 60 52 55 61 62 60 51 58 62 62 59 61 61 62 64 65 65 64 61 59 59 58 57 61 56 55 53 53 53 54 53 53 53 53 55 55 54 52 50 50 51 50 50 51 51 52 53 54
55 51 52 57 62 61 58 53 60 63 62 60 61 60 60 61 65 64 64 61 59 58 57 57 57 56 56 55 54 53 53 52 52 52 52 54 56 56 52 51 51 51 50 50 50 50 49 50 53
54 53 55 52 56 59 54 54 59 61 62 60 57 56 57 59 63 64 62 62 60 59 58 56 56 55 54 53 52 53 53 53 52 52 52 55 54 56 52 51 51 51 50 50 49 49 49 50 50
61 57 52 54 59 54 51 55 56 60 60 59 56 57 57 59 65 65 63 63 60 61 57 56 56 54 53 52 51 50 50 51 52 52 54 54 54 56 53 51 51 51 50 49 50 49 49 49 49
62 58 49 54 59 55 55 51 55 57 56 58 57 57 57 59 61 63 63 63 61 60 57 55 55 54 52 50 50 50 49 50 50 51 52 54 54 55 54 51 51 51 49 50 49 48 47 47 49
59 56 51 51 56 56 52 48 52 55 57 58 56 57 58 58 58 59 60 63 62 60 58 56 54 54 53 52 51 51 50 49 49 50 51 52 53 55 54 53 51 51 49 49 49 48 47 46 48
55 64 58 55 49 42 51 37 50 53 53 55 55 56 53 58 59 59 62 63 62 61 58 55 54 53 53 52 50 48 48 46 48 48 49 50 53 53 54 53 52 51 50 49 48 51 49 47 47
60 66 58 57 48 45 45 39 44 52 49 51 53 54 53 55 57 58 62 65 61 61 57 55 53 52 52 52 51 49 49 48 48 49 49 49 50 52 53 52 51 51 50 50 50 50 49 48 48
65 60 56 50 44 36 42 41 40 44 50 52 54 55 56 55 57 59 62 63 60 57 58 55 52 52 52 51 51 51 50 49 48 48 48 49 48 50 51 52 51 51 51 52 51 52 52 50 49
60 49 41 39 35 35 47 41 42 50 53 53 53 54 56 57 60 57 60 60 55 58 57 56 52 51 51 51 51 52 52 52 49 48 48 48 48 49 50 50 50 50 51 54 54 54 54 50 48
55 50 43 36 33 36 49 37 43 53 54 53 54 54 56 57 55 55 60 56 57 58 55 53 52 50 51 51 54 58 53 50 50 49 49 48 48 49 50 51 51 51 52 53 53 52 54 52 54
56 48 51 41 40 36 39 45 52 56 54 54 53 53 52 53 56 56 57 56 58 58 53 52 51 51 52 52 56 52 52 51 50 50 49 49 49 51 52 52 51 51 52 52 51 52 54 54 54
56 57 45 41 32 31 38 39 39 48 51 52 52 52 52 53 57 56 56 58 58 54 52 51 51 51 52 51 57 53 52 52 51 50 50 50 50 51 51 51 51 51 52 52 51 51 51 54 52
51 48 45 42 39 34 35 38 47 48 50 50 53 54 52 53 55 56 57 59 58 54 54 51 51 51 51 52 56 52 52 52 52 51 51 51 50 50 51 52 52 52 52 52 52 52 54 54 54
55 48 45 38 36 37 35 37 52 51 52 52 54 56 55 53 54 57 58 58 56 54 51 51 51 51 52 52 56 54 52 51 51 52 54 53 56 56 51 52 52 52 54 56 55 56 56 52 52
MSLP
1011.00 1010.95 1010.80 1011.32 1013.36 1015.04 1015.32 1014.85 1014.55 1014.61 1015.10 1015.33 1015.41 1015.67 1016.69 1017.54 1017.92 1018.66 1018.65 1018.78 1018.55 1018.57 1018.66 1018.56 1018.56 1018.70 1018.77 1018.78 1018.67 1018.66 1018.66 1018.60 1018.62 1018.71 1018.65 1018.70 1018.72 1018.65 1018.47 1018.38 1018.26 1018.04 1017.76 1017.71 1017.59 1017.69 1017.71 1017.71 1017.81
1010.88 1011.14 1011.71 1013.24 1015.26 1015.94 1016.00 1015.30 1014.84 1014.84 1015.30 1015.56 1015.81 1016.33 1016.81 1018.02 1018.30 1018.87 1019.16 1019.19 1018.95 1019.02 1019.10 1018.98 1018.78 1019.08 1019.09 1019.18 1019.25 1019.16 1019.19 1019.09 1019.12 1019.03 1019.05 1019.12 1019.00 1018.90 1018.66 1018.53 1018.43 1018.32 1018.10 1017.93 1017.75 1017.80 1017.97 1017.98 1018.05
1011.20 1011.36 1012.97 1014.79 1016.73 1017.15 1016.81 1015.95 1015.62 1015.45 1015.50 1015.59 1016.45 1017.05 1017.65 1018.62 1018.91 1019.54 1019.56 1019.52 1019.34 1019.40 1019.46 1019.37 1019.22 1019.45 1019.65 1019.63 1019.63 1019.59 1019.59 1019.57 1019.57 1019.55 1019.49 1019.43 1019.23 1019.20 1018.99 1018.85 1018.71 1018.53 1018.48 1018.38 1018.23 1018.17 1018.23 1018.26 1018.34
1011.73 1012.51 1014.44 1015.89 1017.27 1017.50 1017.33 1016.98 1016.72 1016.26 1016.08 1016.34 1016.89 1017.80 1018.67 1018.81 1019.02 1019.58 1019.85 1019.82 1019.82 1019.93 1019.90 1019.83 1019.97 1020.13 1020.14 1020.11 1020.07 1020.04 1020.03 1019.94 1019.82 1019.87 1019.76 1019.62 1019.50 1019.35 1019.24 1019.08 1019.03 1018.86 1018.74 1018.64 1018.54 1018.46 1018.52 1018.49 1018.49
1012.21 1013.67 1015.58 1016.63 1017.35 1017.71 1017.41 1017.20 1016.72 1016.82 1016.89 1016.98 1017.18 1018.60 1019.27 1019.42 1019.41 1019.76 1020.21 1020.37 1020.56 1020.44 1020.41 1020.54 1020.63 1020.64 1020.68 1020.66 1020.61 1020.57 1020.51 1020.38 1020.21 1019.99 1020.01 1019.97 1019.73 1019.67 1019.40 1019.33 1019.20 1019.09 1018.95 1018.77 1018.71 1018.72 1018.65 1018.63 1018.61
1013.25 1014.61 1016.54 1016.73 1016.72 1016.88 1017.30 1017.38 1017.73 1017.68 1017.69 1017.79 1018.32 1018.74 1019.97 1020.46 1020.07 1020.55 1020.67 1020.71 1020.69 1020.94 1021.03 1021.13 1021.07 1021.08 1021.07 1021.10 1021.09 1021.05 1020.86 1020.60 1020.48 1020.39 1020.29 1020.13 1019.91 1019.87 1019.63 1019.50 1019.35 1019.20 1019.07 1018.86 1018.77 1018.74 1018.73 1018.71 1018.71
1013.70 1015.69 1017.12 1017.18 1017.11 1017.24 1017.08 1017.39 1017.84 1018.33 1018.39 1018.14 1018.29 1019.20 1020.52 1020.81 1020.86 1020.94 1021.03 1020.98 1021.17 1021.34 1021.49 1021.69 1021.80 1021.79 1021.70 1021.57 1021.48 1021.41 1021.22 1021.12 1021.01 1020.84 1020.52 1020.38 1020.24 1020.26 1019.93 1019.61 1019.45 1019.30 1019.22 1019.10 1018.93 1018.74 1018.75 1018.74 1018.68
1013.73 1015.64 1017.15 1017.50 1017.67 1017.32 1017.26 1017.74 1018.12 1018.12 1018.54 1018.49 1019.21 1019.86 1020.66 1021.19 1021.28 1021.31 1021.55 1021.59 1021.82 1022.01 1022.02 1022.05 1022.10 1022.00 1022.00 1022.12 1021.94 1021.75 1021.51 1021.33 1021.17 1021.10 1020.89 1020.82 1020.67 1020.48 1020.19 1019.99 1019.74 1019.51 1019.25 1019.14 1019.04 1018.84 1018.71 1018.64 1018.66
1013.30 1015.38 1016.97 1017.41 1017.40 1017.03 1017.21 1017.74 1018.44 1018.79 1018.98 1019.28 1019.80 1020.00 1020.69 1021.12 1021.33 1021.81 1021.96 1022.14 1022.33 1022.47 1022.43 1022.56 1022.46 1022.51 1022.44 1022.34 1022.34 1022.22 1021.98 1021.75 1021.43 1021.34 1021.23 1021.15 1020.98 1020.83 1020.67 1020.38 1020.14 1019.90 1019.73 1019.42 1019.07 1018.85 1018.72 1018.52 1018.52
1013.21 1015.30 1015.98 1016.13 1015.93 1016.15 1017.00 1017.69 1018.63 1019.03 1019.47 1019.73 1019.97 1020.65 1021.14 1021.37 1021.62 1022.07 1022.31 1022.56 1022.80 1022.79 1022.80 1022.82 1022.88 1022.87 1022.85 1022.67 1022.73 1022.47 1022.35 1022.43 1022.27 1022.03 1021.84 1021.64 1021.47 1021.10 1020.96 1020.74 1020.48 1020.30 1019.96 1019.80 1019.53 1019.15 1018.91 1018.71 1018.82
1013.40 1015.03 1015.50 1014.63 1014.73 1015.87 1017.25 1018.14 1018.78 1019.32 1020.02 1020.09 1019.70 1020.11 1020.59 1021.20 1021.63 1022.03 1022.57 1022.90 1023.12 1023.17 1023.33 1023.33 1023.12 1023.13 1023.05 1022.94 1022.85 1022.81 1022.57 1022.60 1022.53 1022.54 1022.43 1022.26 1021.99 1021.75 1021.45 1021.23 1021.03 1020.70 1020.23 1020.13 1019.96 1019.50 1019.25 1019.12 1018.96
1013.57 1014.89 1014.69 1014.64 1015.39 1016.28 1017.72 1018.49 1019.22 1019.36 1019.64 1019.81 1020.65 1020.78 1020.97 1021.30 1021.60 1022.16 1022.56 1023.10 1023.40 1023.54 1023.63 1023.84 1023.69 1023.48 1023.47 1023.38 1023.13 1023.00 1022.82 1022.56 1022.59 1022.50 1022.56 1022.66 1022.46 1022.20 1022.01 1021.80 1021.44 1021.15 1020.67 1020.34 1020.12 1019.69 1019.47 1019.23 1019.02
1013.96 1015.13 1015.39 1015.63 1016.45 1017.29 1018.00 1018.68 1019.35 1020.06 1020.22 1019.97 1020.49 1021.34 1021.50 1021.78 1021.96 1022.32 1022.57 1022.96 1023.49 1023.75 1023.83 1023.88 1023.72 1023.76 1023.62 1023.58 1023.46 1023.02 1022.91 1022.66 1022.72 1022.87 1022.78 1022.61 1022.83 1022.61 1022.26 1021.92 1021.53 1021.35 1021.03 1020.61 1020.29 1019.70 1019.68 1019.49 1019.19
1014.64 1015.22 1015.89 1016.74 1017.03 1018.25 1018.86 1019.75 1019.68 1020.33 1020.39 1021.07 1021.01 1021.71 1021.86 1021.95 1022.06 1022.34 1022.60 1022.77 1023.35 1023.78 1024.15 1024.14 1024.16 1024.06 1024.04 1023.87 1023.57 1023.43 1023.10 1022.88 1022.89 1022.86 1022.92 1022.58 1022.75 1022.71 1022.45 1022.09 1021.66 1021.32 1021.04 1020.66 1020.30 1019.85 1019.74 1019.61 1019.43
1014.72 1015.91 1016.77 1017.50 1018.11 1018.74 1019.16 1019.49 1019.99 1020.97 1021.49 1021.85 1021.92 1022.19 1022.48 1022.14 1021.92 1022.00 1022.30 1023.13 1023.91 1024.16 1024.23 1024.26 1024.17 1024.25 1024.07 1024.04 1023.97 1023.76 1023.50 1023.19 1023.16 1022.98 1022.85 1022.74 1022.70 1022.61 1022.50 1022.42 1021.76 1021.46 1021.01 1020.59 1020.26 1019.84 1019.63 1019.32 1019.19
1015.19 1016.00 1017.30 1018.38 1018.40 1018.47 1019.06 1019.87 1020.63 1020.88 1021.33 1021.87 1022.31 1022.87 1023.03 1022.62 1021.98 1022.08 1022.72 1023.18 1023.69 1024.03 1024.10 1023.90 1023.96 1023.93 1024.02 1024.40 1024.19 1023.91 1023.62 1023.41 1023.17 1023.15 1023.08 1022.79 1022.65 1022.44 1022.39 1022.15 1021.77 1021.39 1021.06 1020.62 1020.39 1020.20 1019.88 1019.70 1019.34
1015.31 1015.80 1017.07 1018.09 1018.35 1018.62 1019.21 1020.17 1020.66 1021.12 1021.51 1021.96 1022.34 1023.17 1023.56 1023.64 1023.11 1022.95 1023.42 1023.21 1023.73 1023.85 1024.00 1024.05 1024.07 1023.96 1024.26 1024.39 1023.96 1023.66 1023.62 1023.48 1023.27 1023.16 1023.01 1022.74 1022.48 1022.25 1022.22 1022.17 1021.82 1021.28 1021.00 1020.53 1020.42 1020.18 1020.14 1019.86 1019.46
1014.64 1015.67 1016.99 1017.83 1018.60 1018.63 1019.40 1020.37 1020.78 1021.11 1021.33 1022.12 1023.19 1023.14 1022.60 1023.00 1022.88 1023.34 1023.60 1023.36 1023.63 1023.87 1024.29 1024.44 1024.49 1024.41 1024.21 1024.04 1023.79 1023.66 1023.40 1023.34 1023.37 1023.23 1023.02 1022.63 1022.50 1022.17 1022.13 1021.94 1021.52 1021.21 1020.85 1020.61 1020.37 1020.14 1019.76 1019.51 1019.31
1013.01 1014.38 1016.64 1018.22 1018.94 1019.39 1020.20 1020.69 1021.19 1021.33 1021.53 1022.01 1023.26 1023.30 1022.44 1022.55 1022.54 1022.86 1023.34 1023.38 1023.80 1024.19 1024.45 1024.61 1024.60 1024.30 1024.13 1024.18 1024.14 1024.03 1024.04 1023.66 1023.30 1023.14 1022.92 1022.66 1022.52 1022.27 1022.03 1021.67 1021.34 1021.13 1020.89 1020.56 1020.27 1020.09 1019.81 1019.36 1018.98
1013.15 1014.73 1017.06 1018.61 1019.29 1019.79 1020.95 1021.69 1022.07 1022.06 1022.10 1022.14 1022.59 1022.82 1022.78 1023.14 1023.05 1023.10 1023.31 1023.75 1023.95 1024.23 1024.48 1024.53 1024.38 1024.40 1024.32 1024.34 1024.41 1024.33 1024.28 1024.01 1023.65 1023.27 1022.93 1022.61 1022.40 1022.25 1021.92 1021.55 1021.28 1020.96 1020.73 1020.43 1020.24 1020.06 1019.93 1019.65 1019.13
1013.22 1014.43 1016.68 1018.11 1019.62 1020.56 1021.23 1022.06 1022.44 1022.75 1022.77 1022.88 1023.01 1022.96 1023.34 1023.49 1023.47 1023.63 1023.55 1023.78 1023.77 1023.92 1024.19 1024.24 1024.44 1024.54 1024.43 1024.30 1024.40 1024.34 1024.30 1024.12 1023.82 1023.41 1022.92 1022.57 1022.37 1022.07 1021.56 1021.21 1021.11 1020.80 1020.66 1020.45 1020.11 1019.82 1019.77 1019.62 1019.14
1013.46 1014.21 1015.95 1018.07 1019.45 1021.05 1021.49 1022.87 1022.76 1022.84 1022.99 1023.20 1023.31 1023.30 1023.50 1023.65 1023.56 1023.68 1023.67 1023.58 1023.57 1023.74 1023.98 1024.21 1024.59 1024.68 1024.60 1024.42 1024.65 1024.79 1024.87 1024.64 1024.15 1023.73 1023.20 1022.67 1022.19 1021.75 1021.29 1021.19 1021.02 1020.75 1020.41 1020.19 1019.74 1019.48 1019.42 1019.40 1019.17
1013.79 1014.40 1016.18 1018.14 1019.48 1021.09 1022.37 1022.83 1023.11 1023.05 1023.19 1023.21 1023.42 1023.64 1023.72 1023.66 1023.69 1023.58 1023.23 1023.00 1023.14 1023.50 1023.75 1024.21 1024.56 1024.72 1024.68 1024.64 1024.66 1024.62 1024.63 1024.35 1023.88 1023.42 1022.94 1022.62 1022.15 1021.74 1021.48 1021.21 1020.92 1020.59 1020.29 1019.87 1019.50 1019.27 1019.09 1018.96 1018.79
1014.13 1015.40 1017.47 1018.98 1020.52 1022.26 1023.00 1023.10 1023.40 1023.28 1023.33 1023.14 1023.13 1023.11 1023.39 1023.43 1023.64 1023.54 1023.34 1023.34 1023.34 1023.66 1024.05 1024.48 1024.87 1024.84 1024.68 1024.54 1024.34 1024.20 1024.13 1023.85 1023.67 1023.30 1023.07 1022.66 1022.40 1021.95 1021.53 1021.09 1020.81 1020.56 1020.13 1019.71 1019.24 1018.93 1018.63 1018.43 1018.26
1014.41 1016.25 1018.43 1020.40 1021.66 1022.95 1022.84 1022.95 1023.17 1022.92 1022.84 1022.96 1022.84 1022.69 1022.89 1023.14 1023.23 1023.15 1023.08 1023.08 1023.52 1023.84 1024.20 1024.48 1024.76 1024.78 1024.58 1024.34 1024.09 1023.78 1023.53 1023.35 1023.37 1023.25 1023.12 1022.84 1022.47 1022.08 1021.62 1021.23 1020.87 1020.48 1019.85 1019.34 1018.89 1018.68 1018.35 1018.05 1017.94
1015.11 1016.36 1018.33 1020.54 1022.64 1023.42 1023.20 1023.33 1022.79 1022.34 1022.24 1022.36 1022.35 1022.45 1022.57 1022.72 1022.99 1023.16 1022.90 1023.01 1023.75 1023.83 1024.16 1024.32 1024.59 1024.63 1024.41 1024.06 1023.71 1023.30 1023.14 1023.09 1023.06 1023.02 1022.84 1022.53 1022.41 1022.14 1021.53 1021.11 1020.69 1020.29 1019.66 1019.17 1018.71 1018.46 1018.10 1017.80 1017.50
1015.90 1017.09 1018.54 1020.84 1022.99 1023.82 1024.02 1023.56 1022.52 1022.13 1022.11 1022.27 1022.64 1022.68 1022.84 1023.00 1022.83 1022.64 1023.13 1023.20 1023.22 1023.59 1023.95 1024.22 1024.39 1024.41 1024.01 1023.77 1023.48 1023.20 1023.05 1022.94 1022.84 1022.68 1022.50 1022.30 1022.11 1021.73 1021.22 1020.97 1020.66 1020.22 1019.67 1019.17 1018.74 1018.53 1018.23 1017.95 1017.64
1016.69 1017.82 1019.18 1020.97 1023.29 1024.28 1024.37 1023.90 1023.44 1022.67 1022.31 1022.33 1022.64 1022.90 1022.92 1022.88 1022.93 1022.86 1022.45 1022.90 1023.25 1023.43 1023.82 1024.01 1024.02 1024.00 1023.71 1023.55 1023.20 1023.03 1022.92 1022.69 1022.59 1022.46 1022.30 1022.10 1021.81 1021.43 1021.17 1020.98 1020.63 1020.22 1019.73 1019.24 1018.89 1018.58 1018.33 1018.00 1017.75
1017.93 1018.77 1020.34 1021.74 1023.45 1024.06 1024.41 1024.08 1023.36 1022.95 1022.58 1022.41 1022.44 1022.45 1022.60 1022.68 1022.25 1022.30 1022.88 1022.87 1023.13 1023.43 1023.73 1023.86 1023.86 1023.73 1023.58 1023.21 1022.90 1022.79 1022.62 1022.51 1022.44 1022.27 1022.05 1021.83 1021.50 1021.36 1021.23 1021.01 1020.67 1020.27 1019.89 1019.46 1019.01 1018.69 1018.51 1018.19 1017.76
1018.78 1019.89 1021.03 1022.44 1024.21 1024.66 1024.61 1024.43 1023.50 1022.97 1022.82 1022.65 1022.49 1022.21 1022.01 1022.12 1022.41 1022.58 1022.67 1022.81 1023.13 1023.32 1023.46 1023.53 1023.40 1023.41 1023.09 1022.82 1022.59 1022.54 1022.37 1022.34 1022.22 1021.98 1021.79 1021.59 1021.18 1020.76 1021.04 1020.82 1020.58 1020.21 1019.80 1019.51 1019.16 1018.82 1018.59 1018.45 1018.30
Wind_Speed
5 2 2 6 7 5 4 4 3 5 4 3 8 9 9 7 3 2 4 3 4 5 3 6 12 11 11 11 12 12 11 12 12 12 12 11 10 10 10 10 9 9 9 8 8 6 9 10 11
4 1 5 3 7 4 4 3 8 7 13 11 11 9 9 6 2 4 3 1 3 5 5 4 13 11 11 11 11 11 11 10 10 10 10 9 9 9 9 9 9 8 7 6 7 6 7 9 9
4 3 5 6 3 2 3 4 13 16 6 5 5 7 4 4 3 5 2 3 6 7 5 7 14 12 11 11 11 10 10 10 10 9 8 7 8 7 8 8 8 7 6 5 6 6 5 6 7
2 5 5 6 4 2 3 6 6 2 7 7 9 7 5 6 3 5 7 6 9 8 8 10 13 12 12 12 12 12 11 10 10 9 9 8 8 7 7 6 6 7 6 6 5 5 4 4 4
4 4 6 3 5 2 2 8 6 6 3 5 3 6 5 5 13 12 9 8 8 8 7 7 12 11 11 10 9 9 8 8 8 8 7 7 8 5 6 7 7 6 6 6 6 6 6 5 4
5 4 5 2 7 2 3 6 7 13 11 10 9 9 5 3 11 10 9 9 7 7 7 7 10 11 10 10 9 8 8 7 7 7 7 8 12 7 9 7 6 7 7 7 7 7 7 7 5
7 5 3 2 1 0 2 8 7 10 9 9 4 5 3 5 11 9 9 7 7 6 6 6 7 10 13 12 12 11 11 10 9 8 8 9 12 14 14 12 10 10 10 9 11 11 9 9 8
6 6 5 1 4 1 7 3 3 6 5 3 7 4 4 7 11 10 7 8 7 7 6 6 6 6 6 6 16 16 13 14 13 14 11 11 12 13 15 15 13 14 12 12 13 13 14 11 10
4 6 2 3 5 3 9 5 3 3 6 4 3 4 9 12 9 7 7 7 5 6 6 6 6 7 7 6 9 12 16 15 14 11 11 8 4 6 9 13 15 15 16 16 14 13 13 12 12
6 5 3 6 5 6 8 6 7 5 8 6 12 11 11 8 8 8 7 6 4 4 4 5 7 7 6 5 6 6 6 5 6 6 6 5 6 6 8 11 15 15 14 15 15 14 14 10 3
3 5 6 12 9 11 6 9 4 13 3 5 13 13 16 9 8 7 6 8 5 4 5 7 6 6 7 6 4 3 3 4 3 6 6 5 4 5 4 4 4 4 10 4 6 6 4 6 4
7 4 7 4 9 7 4 8 4 2 4 11 6 9 11 13 10 9 9 6 4 5 5 5 6 7 6 4 4 4 3 3 3 4 6 5 4 5 4 3 4 4 4 5 4 3 5 6 6
6 3 5 10 12 12 9 7 6 9 8 11 11 8 12 10 8 6 7 7 7 6 5 5 6 6 6 6 4 4 3 2 3 4 4 4 4 4 4 4 3 4 4 4 5 4 4 5 6
4 8 4 8 11 8 13 5 2 6 9 8 12 8 8 11 9 6 6 7 5 8 6 5 7 6 6 5 6 5 4 3 3 2 3 5 3 3 4 4 5 4 4 4 4 4 4 4 4
12 7 4 3 3 4 11 3 5 6 7 6 9 6 4 6 8 10 8 6 7 6 5 4 3 3 5 5 5 4 3 3 2 3 4 4 4 4 4 4 4 5 4 6 4 5 4 4 4
4 5 6 3 5 5 4 1 7 8 10 7 7 6 7 9 12 6 6 8 7 7 6 3 2 3 6 5 3 3 4 3 2 2 3 4 5 3 4 4 4 4 4 4 3 4 4 4 4
6 3 4 3 4 3 2 4 10 9 7 8 9 7 2 6 7 3 5 9 7 7 6 4 2 6 4 4 4 4 4 4 3 2 3 5 5 5 3 4 5 5 4 4 3 2 2 3 3
6 4 4 5 1 6 8 6 10 10 9 7 7 6 12 7 7 5 6 7 6 5 3 2 1 3 3 3 3 3 3 3 3 3 4 6 5 6 4 4 5 4 4 4 3 3 3 4 3
3 5 9 2 4 7 7 9 2 2 5 8 12 11 9 10 6 6 5 6 5 4 4 0 1 2 3 3 3 2 3 3 3 3 6 6 5 6 5 4 5 5 4 5 4 3 3 3 1
2 6 4 5 6 7 7 11 9 8 8 14 17 14 10 6 3 6 4 5 5 3 2 2 2 2 2 1 2 1 2 3 3 4 5 5 6 6 5 5 5 5 4 5 4 3 2 2 2
4 4 6 8 9 7 7 6 4 2 4 1 4 3 2 4 5 4 5 5 5 5 5 5 3 3 3 4 3 3 2 3 3 4 4 5 6 6 6 6 5 6 3 4 5 4 4 2 3
3 6 14 19 5 3 1 0 2 0 6 4 3 2 2 3 3 5 9 6 5 6 4 5 2 4 4 4 2 2 2 2 3 3 3 5 6 7 6 6 6 6 4 5 4 3 3 3 4
2 6 19 7 7 6 7 5 2 1 5 6 6 6 5 7 7 8 8 9 6 6 7 4 3 5 6 4 4 3 3 3 3 3 5 5 6 6 6 6 6 6 4 5 5 4 4 3 3
10 19 11 6 4 5 3 3 3 1 3 4 5 10 7 7 7 6 4 0 3 3 4 3 4 5 6 5 6 6 6 5 4 4 4 4 4 5 6 6 5 6 5 5 5 4 4 3 4
6 5 1 2 6 0 5 5 5 4 3 4 8 9 6 5 6 7 8 6 6 4 5 5 6 6 6 6 7 6 6 5 5 5 4 6 4 3 6 6 6 5 6 5 5 4 4 3 2
4 5 5 5 4 2 5 2 4 4 1 1 1 4 5 6 3 5 9 7 6 5 7 6 5 7 7 6 7 5 4 3 3 4 4 4 3 4 5 6 6 7 7 6 4 3 3 2 3
4 5 3 8 3 4 2 1 6 3 2 2 4 1 4 6 8 9 4 9 7 8 8 8 7 7 6 7 6 5 4 4 5 6 4 4 5 4 5 6 6 7 7 6 5 3 5 4 4
5 2 1 4 5 3 1 0 4 6 4 3 4 6 7 7 7 7 9 3 6 6 6 7 6 6 5 7 5 3 5 4 4 3 6 5 5 4 5 6 6 6 6 6 6 4 4 4 3
6 5 6 6 4 4 4 3 5 4 3 3 7 8 8 9 11 6 4 5 4 5 6 6 6 6 7 6 4 4 5 3 3 4 6 5 4 4 5 5 5 5 6 6 5 5 4 5 4
4 3 3 5 0 2 4 2 5 4 5 4 6 7 7 5 4 4 6 6 6 6 5 7 7 6 6 6 5 5 5 3 5 5 6 6 5 4 5 4 4 5 5 5 6 5 5 5 5
Wind_Direction
147 216 35 38 61 65 337 23 96 118 69 58 67 94 109 34 37 141 68 337 4 89 76 96 86 78 78 74 74 75 77 75 77 78 77 79 79 78 73 65 56 54 65 101 112 114 107 107 113
149 77 49 73 67 56 329 350 67 98 126 101 77 76 61 63 29 62 50 228 66 94 68 71 89 79 78 76 72 73 75 80 79 77 75 72 70 67 67 65 64 56 48 64 92 99 101 101 103
123 27 69 82 81 53 320 83 117 130 125 74 94 44 34 38 39 120 61 107 61 48 54 67 75 75 76 76 75 73 69 65 65 63 62 59 56 51 50 48 48 54 56 47 35 59 74 88 97
147 17 41 78 75 36 314 15 353 41 74 73 116 65 71 343 85 84 100 93 65 43 38 61 64 64 63 60 58 55 55 56 56 52 45 38 31 27 23 26 23 25 28 31 25 29 35 57 84
40 63 60 47 95 243 276 313 296 27 63 61 46 90 72 4 99 98 84 72 72 53 41 43 55 54 52 54 54 54 52 49 45 42 34 32 6 3 6 355 352 354 357 359 360 356 355 4 22
50 82 56 84 149 216 284 73 78 84 83 97 79 96 65 47 107 99 96 81 62 64 47 33 43 50 46 42 38 32 28 34 41 35 27 23 22 23 349 330 329 332 329 327 323 323 324 330 340
96 77 117 68 126 67 204 160 113 93 81 50 135 81 89 95 119 107 100 88 83 68 56 35 24 24 19 19 20 12 15 10 3 6 28 56 43 33 16 358 334 332 323 320 316 309 301 307 319
106 91 107 164 170 287 138 88 79 90 75 73 0 133 108 122 118 116 105 96 67 50 42 34 37 29 16 10 18 15 7 357 351 9 20 36 40 40 34 30 11 356 341 329 324 317 304 301 311
122 70 76 175 152 203 150 124 54 76 100 64 38 71 116 121 117 111 108 85 70 59 51 46 56 46 36 40 17 14 24 25 9 10 34 41 33 38 24 19 22 22 20 3 337 317 313 307 309
92 94 163 173 202 166 144 115 132 128 122 114 97 94 118 122 125 129 127 108 95 95 66 58 49 33 23 21 16 13 14 9 3 17 27 26 23 26 37 23 19 9 8 6 3 1 351 343 331
92 127 168 200 152 126 96 105 116 125 111 153 140 138 155 146 129 124 119 122 138 100 51 43 48 39 31 11 8 10 11 17 25 35 28 20 17 10 12 6 359 355 356 356 343 349 355 323 315
90 87 203 159 143 108 91 102 96 92 162 121 110 138 137 128 126 125 121 128 120 80 77 56 45 40 22 5 359 337 14 30 33 45 36 22 9 5 357 352 347 347 336 336 323 343 337 346 298
67 74 19 69 77 70 84 85 118 107 97 115 120 127 133 125 118 109 116 119 144 134 93 66 47 30 14 20 348 348 1 51 72 37 28 33 9 1 343 338 344 337 331 333 323 329 332 332 315
129 95 79 54 74 119 118 142 117 173 146 120 118 129 139 135 133 128 143 162 137 113 101 67 44 25 22 25 7 360 18 73 66 36 1 17 4 341 344 335 330 330 325 313 312 316 311 298 292
134 107 50 36 116 85 160 65 114 119 111 126 141 144 159 153 162 166 173 126 107 106 116 98 101 63 46 25 8 16 13 27 25 2 345 342 332 315 323 312 323 309 312 315 324 321 319 317 311
123 109 144 27 156 210 282 140 147 156 155 158 158 157 195 198 198 175 148 121 109 125 138 112 81 60 40 15 4 356 5 359 327 315 334 319 313 334 325 326 319 309 313 311 315 303 307 281 286
5 233 98 113 338 135 106 128 186 154 175 174 153 148 293 288 281 211 131 129 149 161 162 145 71 59 23 347 1 6 358 355 309 323 325 319 327 331 333 311 300 319 322 323 310 284 234 269 291
206 228 107 134 237 82 96 101 169 182 196 177 99 164 213 243 241 178 146 131 156 179 142 156 126 62 18 347 356 349 2 355 330 320 310 326 318 325 330 317 321 327 325 319 322 290 269 240 258
190 119 107 82 208 86 91 112 108 236 247 203 143 240 224 227 182 156 137 150 163 194 166 3 52 351 31 359 355 353 334 324 329 326 321 314 308 313 323 316 321 320 318 302 305 291 297 304 310
103 112 83 47 105 94 113 81 66 76 89 130 179 187 214 212 176 139 175 185 199 169 164 195 254 327 360 360 304 299 305 293 272 307 304 301 316 305 296 309 308 306 311 312 299 268 301 280 253
301 135 170 135 85 70 137 68 76 67 25 222 170 193 186 211 173 158 233 220 218 206 202 216 242 301 317 323 339 341 330 317 331 319 314 321 311 303 307 318 314 306 307 301 292 276 222 247 285
284 114 127 140 124 106 93 64 43 360 332 303 239 249 233 246 179 182 221 228 226 227 204 212 257 291 289 303 302 266 257 283 260 265 271 301 320 319 323 318 311 311 314 304 293 272 237 214 256
266 99 150 150 96 113 11 85 272 89 301 273 241 262 250 242 214 217 228 224 201 207 210 168 242 282 284 282 251 256 265 239 264 285 324 334 321 327 316 311 316 322 309 309 333 318 274 229 247
111 85 70 45 70 60 294 117 310 241 283 288 230 239 225 229 230 263 276 296 224 201 138 166 245 267 276 280 276 244 256 282 316 321 329 319 310 305 312 318 325 307 307 318 306 296 293 284 263
95 88 21 325 28 201 348 57 237 288 244 236 245 241 230 223 208 187 201 208 210 184 174 205 228 274 279 275 286 274 263 279 284 294 299 306 316 310 309 323 320 310 301 299 304 315 324 330 299
21 122 152 245 164 195 353 25 270 228 305 352 330 242 209 204 205 218 213 206 205 192 207 216 231 263 266 295 287 302 297 267 275 269 278 279 271 280 292 309 310 311 309 313 326 330 331 335 348
325 48 151 108 63 82 264 311 329 19 244 39 19 61 221 198 215 223 214 210 193 197 207 210 231 250 277 286 292 314 311 282 265 277 289 276 276 276 302 313 309 315 317 328 350 0 329 334 344
76 299 159 22 132 130 323 312 247 334 347 205 215 249 236 234 247 232 222 177 203 199 206 217 231 252 267 279 275 282 288 284 281 292 288 290 288 278 319 314 317 322 333 345 2 355 340 351 0
341 8 51 107 89 144 168 258 215 265 296 205 243 248 231 232 231 223 212 227 205 213 209 227 241 255 265 271 273 269 282 294 293 295 280 271 286 309 315 314 318 327 329 343 348 358 16 40 347
115 67 91 111 194 44 107 276 330 238 257 236 242 257 253 252 293 220 230 215 214 220 216 226 237 247 247 263 259 252 275 286 277 275 284 282 269 274 281 292 306 318 337 350 346 349 28 36 17